Regional Weather Roundup
Issued by NWS

Home | Current Version | Previous Version | Text Only | Print | Product List | Glossary On
Versions: 1 2 3 4 5 6 7 8 9 10 11 12 13 14 15 16 17 18 19 20 21 22 23 24 25 26 27 28 29 30 31 32 33 34 35 36 37 38 39 40 41 42 43 44 45 46 47 48 49 50
000
ASUS43 KIND 171109
RWRIN

WEATHER ROUNDUP FOR INDIANA
NATIONAL WEATHER SERVICE INDIANAPOLIS IN
600 AM EST TUE JAN 17 2017

NOTE: "FAIR" INDICATES FEW OR NO CLOUDS BELOW 12,000 FEET WITH NO
SIGNIFICANT WEATHER AND/OR OBSTRUCTIONS TO VISIBILITY.

* - STATION DOES NOT REPORT WEATHER SUCH AS PRECIPITATION OR FOG.

+ - STATION NOT QUALITY CONTROLLED BY THE NATIONAL WEATHER SERVICE.
    USE DATA WITH CAUTION...ESPECIALLY DEWPOINT AND RELATIVE
    HUMIDITY OBSERVATIONS.

INZ001>003-010>013-019-020-171200-
NORTHWEST INDIANA

CITY           SKY/WX    TMP DP  RH WIND       PRES   REMARKS
GARY /AIRPORT/ CLOUDY    50  48  93 W12G23    29.74S FOG
KNOX *+        CLOUDY    52  45  76 SW12      29.73F
LA PORTE +     CLOUDY    49  49  99 SW10G16   29.73F FOG
MICHIGAN CITY+ CLOUDY    50  50 100 SW8       29.73S
MONTICELLO +   CLOUDY    52  51  95 W14G20    29.77R
RENSSELAER +   CLOUDY    46  46 100 W18G24    29.78R
VALPARAISO     CLOUDY    50  49  96 W21       29.73F

$$

LMZ046-743>745-171200-
SOUTHERN LAKE MICHIGAN

STATION/POSITION TIME  TEMP    WIND        PRES    WAVE
                       AIR SEA DIR/SP/G            HT
                 (UTC) (F)     (DEG/KT/KT) (MB)    (FT)
BURNS HARBOR     1040   48     230/ 12/ 16 1007.5S

$$

INZ004-005-014>016-021>024-171200-
NORTH CENTRAL INDIANA

CITY           SKY/WX    TMP DP  RH WIND       PRES   REMARKS
GOSHEN         RAIN      50  48  93 S12       29.75F FOG
LOGANSPORT +   CLOUDY    52  52 100 SW10      29.78R
PERU/GRISSOM   HVY RAIN  54  54 100 W13       29.75S FOG
ROCHESTER +    CLOUDY    54  54 100 SW8       29.76F
SOUTH BEND     LGT RAIN  46  46 100 SE3       29.74F FOG
WARSAW +       LGT RAIN  50  46  87 S3        29.76F

$$

INZ006>009-017-018-025>027-171200-
NORTHEAST INDIANA

CITY           SKY/WX    TMP DP  RH WIND       PRES   REMARKS
ANGOLA *+      CLOUDY    39  34  81 SE6       29.77F VSB 3/4
AUBURN +       LGT RAIN  43  41  93 CALM      29.79F VSB 1/2
FORT WAYNE     TSTM      50  48  93 S18G26    29.79F FOG
HUNTINGTON +   RAIN      53  52  97 SW8       29.77F
KENDALLVILLE + LGT RAIN  42  42 100 SE6       29.78F VSB 1/2

$$

INZ028-029-035-036-043>045-051>053-171200-
WEST CENTRAL INDIANA

CITY           SKY/WX    TMP DP  RH WIND       PRES   REMARKS
CRAWFORDSVL +  CLOUDY    52  52 100 W15G26    29.82R
GREENCASTLE +  LGT RAIN  52  52 100 W10       29.85R
LAFAYETTE      CLOUDY    52  51  97 W21G30    29.80R
TERRE HAUTE    CLOUDY    52  49  89 W7        29.87R

$$

INZ030>032-037>040-046>048-054>057-064-065-171200-
CENTRAL INDIANA

CITY           SKY/WX    TMP DP  RH WIND       PRES   REMARKS
CP ATTERBURY + CLOUDY    59  55  88 SW16      29.84S
FRANKFORT +    CLOUDY    57  55  94 W22       29.81R
GREENWOOD *+   CLOUDY    58  58  98 S13       29.82F
INDIANAPOLIS   LGT RAIN  57  55  93 SW14      29.81S
-EAGLE CREEK   LGT RAIN  57  55  93 SW12      29.79F
KOKOMO +       RAIN      54  53  97 S14       29.77F
MARION +       CLOUDY    54  54 100 S16       29.79S
MT COMFORT *+  CLOUDY    54  54 100 S8        29.81F
SHELBYVILLE    CLOUDY    57  54  89 S18       29.82F
ZIONSVILLE +   LGT RAIN  55  54  97 S13       29.79F

$$

INZ033-034-041-042-049-050-058-059-171200-
EAST CENTRAL INDIANA

CITY           SKY/WX    TMP DP  RH WIND       PRES   REMARKS
MUNCIE         CLOUDY    58  54  86 S18G25    29.79F

$$

INZ060-061-067>069-081>083-085>088-171200-
SOUTHWEST INDIANA

CITY           SKY/WX    TMP DP  RH WIND       PRES   REMARKS
EVANSVILLE     PTCLDY    59  56  89 SW13G25   29.91R
HUNTINGBURG *+ PTCLDY    57  57 100 S9        29.91R
WASHINGTON +   CLOUDY    58  56  94 SW12      29.87S

$$

INZ062-063-066-070>080-084-089>092-171200-
SOUTH CENTRAL AND SOUTHEAST INDIANA

CITY           SKY/WX    TMP DP  RH WIND       PRES   REMARKS
BLOOMINGTON    CLOUDY    60  54  80 SW12G25   29.84F
MADISON *+     CLOUDY    57  55  94 S12       29.91F
NORTH VERNON + CLOUDY   N/A N/A N/A S13G21    29.88F

$$





USA.gov is the U.S. government's official web portal to all federal, state and local government web resources and services.